FW3877 Weather Reports


Display with metric or nautical units.
time (UTC)temp
F
wind
direction
speed
MPH
gust
MPH
rain 1hr
in
rain 24hr
in
rain mn
in
humidity
%
barometer
mb
20260507034204 39 193 2.0 3.0 0.00 0.00 0.00 84 1010.7
20260507033703 38 205 1.0 2.0 0.00 0.00 0.00 83 1010.7
20260507032204 39 263 2.0 2.0 0.00 0.00 0.00 83 1010.6
20260507031704 40 258 1.0 3.0 0.00 0.00 0.00 83 1010.6
20260507031204 40 233 2.0 3.0 0.00 0.00 0.00 83 1010.7
20260507030704 40 183 1.0 3.0 0.00 0.00 0.00 83 1010.7
20260507030203 40 206 2.0 3.0 0.00 0.00 0.00 82 1010.8
20260507025204 41 209 2.0 3.0 0.00 0.00 0.00 83 1010.9
20260507024704 41 210 2.0 3.0 0.00 0.00 0.00 83 1010.9
20260507024203 41 194 2.0 3.0 0.00 0.00 0.00 83 1011.0
20260507023203 41 193 3.0 5.0 0.00 0.00 0.00 84 1010.9
20260507022704 41 188 2.0 3.0 0.00 0.00 0.00 84 1010.9
20260507022204 41 193 2.0 8.0 0.00 0.00 0.00 84 1010.8
20260507021703 41 189 3.0 7.0 0.00 0.00 0.00 85 1011.0
20260507021204 40 157 5.0 8.0 0.00 0.00 0.00 85 1010.9
20260507020704 40 164 3.0 5.0 0.00 0.00 0.00 84 1011.0
20260507015703 39 191 2.0 3.0 0.00 0.00 0.00 84 1011.2
20260507015204 39 199 2.0 3.0 0.00 0.00 0.00 84 1011.2
20260507014704 40 197 2.0 3.0 0.00 0.00 0.00 84 1011.2
20260507014204 39 205 1.0 3.0 0.00 0.00 0.00 84 1011.3
20260507013705 39 203 2.0 3.0 0.00 0.00 0.00 85 1011.3
20260507013204 39 186 2.0 5.0 0.00 0.00 0.00 85 1011.2
20260507012703 38 179 1.0 3.0 0.00 0.00 0.00 85 1011.3
20260507011704 37 162 0.0 2.0 0.00 0.00 0.00 84 1011.4
20260507011204 37 165 0.0 2.0 0.00 0.00 0.00 84 1011.4
20260507010703 37 165 1.0 2.0 0.00 0.00 0.00 84 1011.5
20260507010204 38 165 0.0 1.0 0.00 0.00 0.00 84 1011.5
20260507005704 38 165 1.0 2.0 0.00 0.00 0.00 84 1011.5
20260507005204 37 165 0.0 1.0 0.00 0.00 0.00 84 1011.5
20260507004204 36 165 1.0 2.0 0.00 0.00 0.00 84 1011.6
20260507003704 36 143 0.0 1.0 0.00 0.00 0.00 83 1011.6
20260507003204 36 117 0.0 0.0 0.00 0.00 0.00 83 1011.7
20260507002703 36 117 0.0 0.0 0.00 0.00 0.00 83 1011.6
20260507001704 36 117 0.0 0.0 0.00 0.00 0.00 83 1011.8
20260507001204 36 117 0.0 0.0 0.00 0.00 0.00 82 1011.8
20260507000704 36 117 0.0 0.0 0.00 0.00 0.00 82 1011.8
20260506235703 36 126 0.0 0.0 0.00 0.00 0.00 82 1011.7
20260506234704 37 126 0.0 0.0 0.00 0.00 0.00 82 1011.7
20260506234204 37 130 0.0 0.0 0.00 0.00 0.00 82 1011.7
20260506233204 37 131 0.0 0.0 0.00 0.00 0.00 82 1011.7
20260506232203 37 130 0.0 0.0 0.00 0.00 0.00 82 1011.8
20260506231704 37 130 0.0 0.0 0.00 0.00 0.00 81 1011.8
20260506231203 37 130 0.0 0.0 0.00 0.00 0.00 81 1012.0
20260506230704 37 130 0.0 1.0 0.00 0.00 0.00 81 1012.0
20260506230204 37 130 0.0 1.0 0.00 0.00 0.00 80 1012.0
20260506225705 38 130 0.0 1.0 0.00 0.00 0.00 80 1012.1
20260506225204 38 130 0.0 0.0 0.00 0.00 0.00 80 1012.2
20260506224204 38 133 2.0 3.0 0.00 0.00 0.00 81 1012.3
20260506223703 38 134 2.0 3.0 0.00 0.00 0.00 81 1012.2
20260506223205 38 140 2.0 3.0 0.00 0.00 0.00 80 1012.3
20260506222704 38 116 1.0 3.0 0.00 0.00 0.00 79 1012.3
20260506222205 38 88 1.0 2.0 0.00 0.00 0.00 79 1012.3
20260506221704 39 130 1.0 2.0 0.00 0.00 0.00 80 1012.2
20260506221203 39 130 1.0 3.0 0.00 0.00 0.00 80 1012.3
20260506220704 39 127 2.0 3.0 0.00 0.00 0.00 79 1012.2
20260506220203 39 138 2.0 3.0 0.00 0.00 0.00 79 1012.2
20260506215704 40 111 2.0 3.0 0.00 0.00 0.00 79 1012.2
20260506215203 40 103 1.0 3.0 0.00 0.00 0.00 79 1012.3
20260506214704 40 103 1.0 2.0 0.00 0.00 0.00 79 1012.3
20260506213703 41 97 2.0 3.0 0.00 0.00 0.00 78 1012.3
20260506213204 41 93 1.0 2.0 0.00 0.00 0.00 79 1012.3
20260506212703 41 90 0.0 1.0 0.00 0.00 0.00 78 1012.4
20260506212204 41 80 0.0 1.0 0.00 0.00 0.00 78 1012.5
20260506211704 41 80 1.0 1.0 0.00 0.00 0.00 78 1012.5
20260506211204 42 78 0.0 2.0 0.00 0.00 0.00 78 1012.4
20260506210704 42 76 1.0 2.0 0.00 0.00 0.00 77 1012.4
20260506210204 42 52 0.0 0.0 0.00 0.00 0.00 77 1012.3
20260506204703 43 52 0.0 0.0 0.00 0.00 0.00 76 1012.2
20260506204203 43 52 0.0 0.0 0.00 0.00 0.00 76 1012.2
20260506203705 44 52 0.0 0.0 0.00 0.00 0.00 76 1012.3
20260506202704 44 52 0.0 0.0 0.00 0.00 0.00 76 1012.2
20260506201704 45 52 0.0 0.0 0.00 0.00 0.00 75 1011.9
20260506201204 45 52 0.0 0.0 0.00 0.00 0.00 75 1011.9
20260506200703 45 52 0.0 0.0 0.00 0.00 0.00 75 1012.0
20260506195204 46 52 0.0 0.0 0.00 0.00 0.00 74 1012.0
20260506194704 46 52 0.0 0.0 0.00 0.00 0.00 74 1012.0
20260506194204 46 52 0.0 0.0 0.00 0.00 0.00 74 1012.2
20260506193704 46 52 0.0 0.0 0.00 0.00 0.00 74 1012.1
20260506193204 46 52 0.0 0.0 0.00 0.00 0.00 74 1012.2
20260506192704 47 52 0.0 1.0 0.00 0.00 0.00 74 1012.3
20260506192204 47 52 1.0 2.0 0.00 0.00 0.00 74 1012.2
20260506191205 47 42 1.0 2.0 0.00 0.00 0.00 74 1012.4
20260506190704 47 27 2.0 3.0 0.00 0.00 0.00 74 1012.4
20260506190204 47 25 2.0 3.0 0.00 0.00 0.00 73 1012.4
20260506185704 47 27 2.0 3.0 0.00 0.00 0.00 73 1012.5
20260506185204 47 14 2.0 5.0 0.00 0.00 0.00 73 1012.4
20260506184704 47 4 2.0 5.0 0.00 0.00 0.00 73 1012.6
20260506184204 47 21 2.0 5.0 0.00 0.00 0.00 72 1012.5
20260506183704 48 13 3.0 5.0 0.00 0.00 0.00 71 1012.5
20260506182704 48 1 3.0 6.0 0.00 0.00 0.00 70 1012.5
20260506182203 49 347 2.0 5.0 0.00 0.00 0.00 70 1012.4
20260506181204 50 335 3.0 6.0 0.00 0.00 0.00 69 1012.4
20260506180704 51 3 3.0 6.0 0.00 0.00 0.00 68 1012.4
20260506180203 51 343 3.0 6.0 0.00 0.00 0.00 69 1012.4
20260506175704 51 6 3.0 8.0 0.00 0.00 0.00 68 1012.4
20260506175204 51 17 4.0 8.0 0.00 0.00 0.00 67 1012.4
20260506174704 51 18 3.0 6.0 0.00 0.00 0.00 67 1012.4
20260506174204 51 0 3.0 3.0 0.00 0.00 0.00 68 1012.3
20260506173703 51 347 2.0 8.0 0.00 0.00 0.00 68 1012.3
20260506173203 51 359 2.0 5.0 0.00 0.00 0.00 66 1012.2
20260506172704 51 349 4.0 8.0 0.00 0.00 0.00 65 1012.3
20260506172203 52 344 3.0 5.0 0.00 0.00 0.00 65 1012.3
20260506171704 51 21 3.0 6.0 0.00 0.00 0.00 65 1012.3
20260506171203 52 349 3.0 5.0 0.00 0.00 0.00 66 1012.3
20260506170703 52 47 3.0 9.0 0.00 0.00 0.00 66 1012.3
20260506165703 52 41 4.0 8.0 0.00 0.00 0.00 65 1012.2
20260506165204 52 24 5.0 9.0 0.00 0.00 0.00 64 1012.2
20260506164704 52 23 5.0 9.0 0.00 0.00 0.00 65 1012.3
20260506163704 52 338 4.0 9.0 0.00 0.00 0.00 66 1012.4
20260506163203 52 8 5.0 8.0 0.00 0.00 0.00 64 1012.4
20260506162704 53 344 3.0 8.0 0.00 0.00 0.00 66 1012.4
20260506161704 53 339 5.0 8.0 0.00 0.00 0.00 65 1012.4
20260506161203 53 336 4.0 12.0 0.00 0.00 0.00 66 1012.4
20260506160704 53 2 4.0 9.0 0.00 0.00 0.00 64 1012.5
20260506160204 53 342 4.0 8.0 0.00 0.00 0.00 65 1012.5
20260506155704 53 0 5.0 10.0 0.00 0.00 0.00 65 1012.5
20260506155204 53 355 5.0 9.0 0.00 0.00 0.00 64 1012.5
20260506154705 53 339 3.0 8.0 0.00 0.00 0.00 64 1012.4
20260506154203 53 0 5.0 8.0 0.00 0.00 0.00 64 1012.4
20260506153703 53 14 7.0 10.0 0.00 0.00 0.00 62 1012.5
20260506153204 53 28 6.0 9.0 0.00 0.00 0.00 63 1012.5
20260506152703 53 9 5.0 10.0 0.00 0.00 0.00 64 1012.5
20260506152203 53 348 5.0 12.0 0.00 0.00 0.00 62 1012.5
20260506151704 54 9 5.0 9.0 0.00 0.00 0.00 63 1012.6
20260506151203 53 32 5.0 7.0 0.00 0.00 0.00 65 1012.6
20260506150703 53 16 5.0 9.0 0.00 0.00 0.00 64 1012.7
20260506145704 54 15 7.0 12.0 0.00 0.00 0.00 64 1012.8
20260506145203 54 1 7.0 12.0 0.00 0.00 0.00 63 1012.8
20260506144705 54 52 5.0 12.0 0.00 0.00 0.00 61 1012.9
20260506144204 54 4 5.0 14.0 0.00 0.00 0.00 63 1012.9
20260506143704 54 325 4.0 8.0 0.00 0.00 0.00 61 1012.9
20260506143204 56 358 3.0 8.0 0.00 0.00 0.00 58 1012.9
20260506142704 56 230 6.0 10.0 0.00 0.00 0.00 58 1012.9
20260506142205 55 218 6.0 13.0 0.00 0.00 0.00 61 1013.0
20260506141205 54 265 2.0 3.0 0.00 0.00 0.00 60 1013.1
20260506140705 54 249 3.0 8.0 0.00 0.00 0.00 60 1013.2
20260506135704 55 203 2.0 3.0 0.00 0.00 0.00 59 1013.3
20260506135204 55 232 3.0 7.0 0.00 0.00 0.00 61 1013.4
20260506134704 55 186 5.0 9.0 0.00 0.00 0.00 60 1013.4
20260506133703 54 307 2.0 3.0 0.00 0.00 0.00 64 1013.6
20260506133204 54 0 3.0 8.0 0.00 0.00 0.00 64 1013.5
20260506132203 53 310 2.0 3.0 0.00 0.00 0.00 65 1013.7
20260506131704 53 30 2.0 3.0 0.00 0.00 0.00 65 1013.7
20260506130703 53 163 1.0 5.0 0.00 0.00 0.00 66 1013.8
20260506130203 52 126 2.0 7.0 0.00 0.00 0.00 65 1013.9
20260506125704 53 33 3.0 8.0 0.00 0.00 0.00 65 1013.9
20260506124704 52 37 3.0 7.0 0.00 0.00 0.00 68 1013.8
20260506124203 52 31 4.0 8.0 0.00 0.00 0.00 66 1013.9
20260506123204 52 28 2.0 6.0 0.00 0.00 0.00 67 1014.0
20260506122704 52 348 2.0 8.0 0.00 0.00 0.00 65 1014.1
20260506122203 52 286 3.0 9.0 0.00 0.00 0.00 64 1014.2
20260506121704 53 27 5.0 8.0 0.00 0.00 0.00 66 1014.2
20260506121204 53 314 3.0 6.0 0.00 0.00 0.00 67 1014.2
20260506120703 52 354 5.0 8.0 0.00 0.00 0.00 68 1014.2
20260506120204 51 337 3.0 9.0 0.00 0.00 0.00 66 1014.2
20260506115203 52 46 3.0 8.0 0.00 0.00 0.00 69 1014.2
20260506114704 52 254 3.0 8.0 0.00 0.00 0.00 68 1014.3
20260506113705 51 293 3.0 10.0 0.00 0.00 0.00 68 1014.5
20260506113203 51 314 2.0 7.0 0.00 0.00 0.00 67 1014.4
20260506112704 51 312 2.0 3.0 0.00 0.00 0.00 70 1014.5
20260506112203 51 310 2.0 8.0 0.00 0.00 0.00 69 1014.5
20260506111704 52 5 5.0 8.0 0.00 0.00 0.00 68 1014.6
20260506111203 52 340 2.0 5.0 0.00 0.00 0.00 68 1014.7
20260506110203 51 45 2.0 6.0 0.00 0.00 0.00 68 1014.6
20260506105704 51 338 3.0 6.0 0.00 0.00 0.00 69 1014.6
20260506105204 51 13 3.0 6.0 0.00 0.00 0.00 72 1014.5
20260506104703 50 95 3.0 7.0 0.00 0.00 0.00 70 1014.5
20260506104204 50 45 2.0 7.0 0.00 0.00 0.00 73 1014.6
20260506102704 49 340 4.0 6.0 0.00 0.00 0.00 72 1014.8
20260506102204 49 287 2.0 3.0 0.00 0.00 0.00 72 1014.7
20260506101705 50 305 3.0 6.0 0.00 0.00 0.00 72 1014.7
20260506100703 50 275 3.0 7.0 0.00 0.00 0.00 74 1014.8
20260506100204 50 283 4.0 9.0 0.00 0.00 0.00 74 1014.8
20260506095703 50 272 1.0 9.0 0.00 0.00 0.00 74 1014.9
20260506095204 50 304 2.0 6.0 0.00 0.00 0.00 74 1015.0
20260506094703 50 316 1.0 7.0 0.00 0.00 0.00 75 1014.9
20260506094204 50 334 2.0 3.0 0.00 0.00 0.00 75 1015.0
20260506093704 50 280 2.0 3.0 0.00 0.00 0.00 76 1015.0
20260506093204 50 328 2.0 3.0 0.00 0.00 0.00 76 1015.1
20260506092704 50 321 1.0 3.0 0.00 0.00 0.00 76 1015.1
20260506092204 50 312 2.0 5.0 0.00 0.00 0.00 77 1015.0
20260506091704 49 323 2.0 5.0 0.00 0.00 0.00 77 1015.1
20260506091203 48 101 1.0 3.0 0.00 0.00 0.00 77 1015.1
20260506090704 48 82 3.0 6.0 0.00 0.00 0.00 77 1015.1
20260506090203 47 48 1.0 2.0 0.00 0.00 0.00 77 1015.2
20260506085703 46 45 3.0 5.0 0.00 0.00 0.00 76 1015.2
20260506084704 47 81 3.0 7.0 0.00 0.00 0.00 78 1015.3
20260506084204 47 302 3.0 5.0 0.00 0.00 0.00 78 1015.3
20260506083704 47 321 3.0 6.0 0.00 0.00 0.00 79 1015.4
20260506083203 47 317 1.0 5.0 0.00 0.00 0.00 81 1015.4
20260506082204 46 276 2.0 3.0 0.00 0.00 0.00 82 1015.5
20260506081704 46 142 3.0 5.0 0.00 0.00 0.00 83 1015.5
20260506081204 45 203 2.0 3.0 0.00 0.00 0.00 84 1015.6
20260506080704 45 234 1.0 3.0 0.00 0.00 0.00 85 1015.7
20260506080204 45 236 1.0 3.0 0.00 0.00 0.00 84 1015.7
20260506073203 42 255 1.0 3.0 0.00 0.01 0.00 87 1015.7
20260506072704 41 234 1.0 3.0 0.00 0.02 0.00 87 1015.6
20260506072204 41 234 1.0 3.0 0.00 0.02 0.00 88 1015.7
20260506071704 40 256 2.0 3.0 0.00 0.02 0.00 88 1015.7
20260506071204 40 207 1.0 2.0 0.00 0.02 0.00 88 1015.8
20260506070204 39 165 0.0 0.0 0.00 0.02 0.00 89 1015.8
20260506062203 34 83 0.0 0.0 0.00 0.02 0.00 88 1015.7
20260506061704 33 83 0.0 0.0 0.00 0.02 0.00 88 1015.7
20260506061204 33 83 0.0 0.0 0.00 0.02 0.00 88 1015.7
20260506060703 33 83 0.0 0.0 0.00 0.02 0.00 88 1015.7
20260506060203 33 83 0.0 0.0 0.00 0.02 0.00 88 1015.7
20260506051205 31 82 0.0 0.0 0.00 0.02 0.00 87 1015.9
20260506050204 30 82 0.0 0.0 0.00 0.02 0.00 87 1016.0
20260506044704 31 82 0.0 0.0 0.00 0.02 0.00 87 1016.1
20260506043703 31 82 0.0 0.0 0.00 0.02 0.00 87 1016.1
20260506043203 31 82 0.0 0.0 0.00 0.02 0.00 87 1016.1
20260506042704 31 82 0.0 0.0 0.00 0.02 0.00 87 1016.1
20260506042204 31 82 0.0 0.0 0.00 0.02 0.00 87 1016.2
20260506041704 31 82 0.0 0.0 0.00 0.02 0.00 86 1016.2
20260506041203 31 82 0.0 0.0 0.00 0.02 0.00 86 1016.2
20260506040704 31 82 0.0 0.0 0.00 0.02 0.00 86 1016.3
20260506035703 32 82 0.0 0.0 0.00 0.02 0.00 86 1016.4
20260506034704 31 82 0.0 0.0 0.00 0.02 0.00 85 1016.4